Location: Jackson
(42.2460°N, 84.4010°W)
Time: 15:18:26
(UTC-04:00)

Vanguard 1 Rocket - Visible Passes

Search period start: 12 May 2026 00:00
Search period end: 22 May 2026 00:00
Orbit: 655 x 4212 km, 34.3° (Epoch: 12 May)

Date Brightness Start Highest point End Pass type
(mag) Time Alt. Az. Time Alt. Az. Time Alt. Az.
12 May 11.2 01:22:08 10° W 01:37:57 22° SW 01:41:08 21° SW visible
12 May 10.6 21:35:48 10° W 21:53:12 57° SSW 22:15:06 16° SE visible
13 May 11.0 00:04:57 10° W 00:23:20 32° SW 00:32:13 27° SSW visible
13 May 10.9 22:49:58 10° W 23:08:11 42° SSW 23:23:22 24° SSE visible
14 May 11.4 01:24:34 10° W 01:37:04 17° SW 01:40:29 16° SW visible
14 May 10.7 21:36:13 10° W 21:52:51 52° SSW 22:14:33 15° SE visible
15 May 11.2 00:06:00 10° W 00:22:34 27° SW 00:31:40 22° SSW visible
15 May 11.0 22:50:37 10° W 23:07:38 37° SW 23:22:54 20° SSE visible
16 May 11.6 01:29:44 10° WSW 01:36:18 12° SW 01:40:02 11° SW visible
16 May 10.7 21:36:43 10° W 21:52:31 46° SSW 22:14:11 13° SE visible
17 May 11.3 00:07:39 10° W 00:21:54 21° SW 00:31:19 17° SSW visible
17 May 11.1 22:51:31 10° W 23:07:08 31° SW 23:22:39 17° S visible
18 May 10.8 21:37:22 10° W 21:52:13 40° SSW 22:14:02 10° SSE visible
19 May 11.5 00:10:25 10° WSW 00:21:21 16° SW 00:31:11 12° SSW visible
19 May 11.3 22:52:49 10° W 23:06:43 25° SW 23:22:37 12° S visible
20 May 11.0 21:38:13 10° W 21:51:59 33° SSW 22:12:06 10° SSE visible
21 May 11.7 00:17:08 10° WSW 00:20:55 11° SW 00:24:53 10° SW visible
21 May 11.4 22:54:49 10° WSW 23:06:24 19° SW 23:20:47 10° S visible
